Latest Coastal Weather Observations for Spring Bay

IDT60701

Issued at 3:11 pm EST Saturday 30 April 2016 (issued every 10 minutes, with the page automatically refreshed every 10 minutes)

About coastal observations | Map of coastal stations | Coastal observations for TAS | Marine services | Other Formats
Station Details ID: 092133 Name: SPRING BAY NTC AWS Lat: -42.55 Lon: 147.93 Height: 0.0 m
Data from the previous 72 hours. | See also: Recent months for locations in Tasmania
Date/Time
EST
Temp

°C
Wind Pressure Rain
since 9am
mm
Weather Cloud Vis
km
Sea
Height
m
Swell
Dir
 
Speed
knots
Gust
knots
hPa Trend Height
m
Period
s
Dir
30/03:00pm 19.5 - - - 1008.1 - - - - - - - - -
30/02:30pm 19.0 - - - 1008.5 - - - - - - - - -
30/02:00pm 19.2 - - - 1008.7 - - - - - - - - -
30/01:30pm 19.4 - - - 1008.8 - - - - - - - - -
30/01:00pm 19.4 - - - 1009.1 - - - - - - - - -
30/12:30pm 19.4 - - - 1009.5 - - - - - - - - -
30/12:00pm 19.1 - - - 1010.1 - - - - - - - - -
30/11:30am 18.9 - - - 1010.7 - - - - - - - - -
30/11:00am 18.2 - - - 1011.3 - - - - - - - - -
30/10:30am 18.7 - - - 1011.3 - - - - - - - - -
30/10:00am 18.1 - - - 1011.6 - - - - - - - - -
30/09:30am 17.8 - - - 1011.9 - - - - - - - - -
30/09:00am 17.5 - - - 1012.1 - - - - - - - - -
30/08:30am 16.7 - - - 1012.1 - - - - - - - - -
30/08:00am 15.8 - - - 1012.1 - - - - - - - - -
30/07:30am 15.5 - - - 1012.0 - - - - - - - - -
30/07:00am 15.7 - - - 1011.7 - - - - - - - - -
30/06:30am 14.7 - - - 1011.4 - - - - - - - - -
30/06:00am 15.3 - - - 1011.4 - - - - - - - - -
30/05:30am 14.5 - - - 1011.5 - - - - - - - - -
30/05:00am 15.1 - - - 1011.5 - - - - - - - - -
30/04:30am 15.5 - - - 1011.2 - - - - - - - - -
30/04:00am 15.7 - - - 1010.7 - - - - - - - - -
30/03:30am 16.5 - - - 1010.6 - - - - - - - - -
30/03:00am 16.6 - - - 1010.6 - - - - - - - - -
30/02:30am 16.6 - - - 1010.6 - - - - - - - - -
30/02:00am 17.1 - - - 1010.6 - - - - - - - - -
30/01:30am 17.3 - - - 1010.3 - - - - - - - - -
30/01:00am 17.5 - - - 1010.2 - - - - - - - - -
30/12:30am 17.5 - - - 1009.9 - - - - - - - - -
30/12:00am 17.7 - - - 1009.6 - - - - - - - - -
 
Date/Time
EST
Temp

°C
Wind Pressure Rain
since 9am
mm
Weather Cloud Vis
km
Sea
Height
m
Swell
Dir
 
Speed
knots
Gust
knots
hPa Trend Height
m
Period
s
Dir
29/11:30pm 17.6 - - - 1009.5 - - - - - - - - -
29/11:00pm 17.7 - - - 1009.5 - - - - - - - - -
29/10:30pm 17.7 - - - 1009.9 - - - - - - - - -
29/10:00pm 17.6 - - - 1010.1 - - - - - - - - -
29/09:30pm 17.8 - - - 1009.8 - - - - - - - - -
29/09:00pm 17.8 - - - 1009.6 - - - - - - - - -
29/08:30pm 17.8 - - - 1009.0 - - - - - - - - -
29/08:00pm 18.0 - - - 1008.5 - - - - - - - - -
29/07:30pm 18.0 - - - 1008.8 - - - - - - - - -
29/07:00pm 18.1 - - - 1009.1 - - - - - - - - -
29/06:30pm 18.3 - - - 1009.3 - - - - - - - - -
29/06:00pm 19.1 - - - 1008.7 - - - - - - - - -
29/05:30pm 19.0 - - - 1008.6 - - - - - - - - -
29/05:00pm 19.0 - - - 1008.6 - - - - - - - - -
29/04:30pm 19.6 - - - 1008.8 - - - - - - - - -
29/04:00pm 19.8 - - - 1009.1 - - - - - - - - -
29/03:30pm 20.0 - - - 1009.5 - - - - - - - - -
29/03:00pm 20.2 - - - 1009.2 - - - - - - - - -
29/02:30pm 20.3 - - - 1009.3 - - - - - - - - -
29/02:00pm 20.8 - - - 1009.5 - - - - - - - - -
29/01:30pm 19.8 - - - 1009.5 - - - - - - - - -
29/01:00pm 18.0 - - - 1010.1 - - - - - - - - -
29/12:30pm 17.8 - - - 1010.7 - - - - - - - - -
29/12:00pm 18.3 - - - 1011.5 - - - - - - - - -
29/11:30am 17.3 - - - 1012.0 - - - - - - - - -
29/11:00am 17.4 - - - 1012.5 - - - - - - - - -
29/10:30am 18.4 - - - 1013.0 - - - - - - - - -
29/10:00am 17.2 - - - 1013.6 - - - - - - - - -
29/09:30am 16.6 - - - 1014.4 - - - - - - - - -
29/09:00am 16.6 - - - 1014.9 - - - - - - - - -
29/08:30am 16.0 - - - 1015.2 - - - - - - - - -
29/08:00am 15.7 - - - 1015.2 - - - - - - - - -
29/07:30am 15.6 - - - 1015.2 - - - - - - - - -
29/07:00am 15.7 - - - 1015.2 - - - - - - - - -
29/06:30am 15.4 - - - 1015.5 - - - - - - - - -
29/06:00am 15.6 - - - 1015.6 - - - - - - - - -
29/05:30am 15.9 - - - 1015.7 - - - - - - - - -
29/05:00am 15.9 - - - 1016.0 - - - - - - - - -
29/04:30am 15.9 - - - 1016.0 - - - - - - - - -
29/04:00am 16.0 - - - 1016.4 - - - - - - - - -
29/03:30am 15.7 - - - 1017.0 - - - - - - - - -
29/03:00am 15.7 - - - 1017.2 - - - - - - - - -
29/02:30am 15.8 - - - 1017.5 - - - - - - - - -
29/02:00am 15.7 - - - 1017.6 - - - - - - - - -
29/01:30am 15.6 - - - 1018.0 - - - - - - - - -
29/01:00am 15.6 - - - 1018.0 - - - - - - - - -
29/12:30am 15.6 - - - 1018.1 - - - - - - - - -
29/12:00am 15.6 - - - 1018.1 - - - - - - - - -
 
Date/Time
EST
Temp

°C
Wind Pressure Rain
since 9am
mm
Weather Cloud Vis
km
Sea
Height
m
Swell
Dir
 
Speed
knots
Gust
knots
hPa Trend Height
m
Period
s
Dir
28/11:30pm 15.5 - - - 1018.2 - - - - - - - - -
28/11:00pm 15.6 - - - 1018.4 - - - - - - - - -
28/10:30pm 15.8 - - - 1018.7 - - - - - - - - -
28/10:00pm 16.1 - - - 1018.8 - - - - - - - - -
28/09:30pm 16.0 - - - 1019.0 - - - - - - - - -
28/09:00pm 15.6 - - - 1018.8 - - - - - - - - -
28/08:30pm 15.3 - - - 1018.7 - - - - - - - - -
28/08:00pm 15.3 - - - 1018.6 - - - - - - - - -
28/07:30pm 15.3 - - - 1018.4 - - - - - - - - -
28/07:00pm 15.2 - - - 1018.2 - - - - - - - - -
28/06:30pm 15.2 - - - 1017.9 - - - - - - - - -
28/06:00pm 15.3 - - - 1017.6 - - - - - - - - -
28/05:30pm 15.4 - - - 1017.2 - - - - - - - - -
28/05:00pm 15.4 - - - 1016.9 - - - - - - - - -
28/04:30pm 15.5 - - - 1016.6 - - - - - - - - -
28/04:00pm 15.4 - - - 1016.6 - - - - - - - - -
28/03:30pm 15.4 - - - 1016.5 - - - - - - - - -
28/03:00pm 15.7 - - - 1016.3 - - - - - - - - -
28/02:30pm 15.5 - - - 1016.2 - - - - - - - - -
28/02:00pm 15.1 - - - 1016.1 - - - - - - - - -
28/01:30pm 14.5 - - - 1016.0 - - - - - - - - -
28/01:00pm 15.0 - - - 1015.7 - - - - - - - - -
28/12:30pm 15.9 - - - 1015.1 - - - - - - - - -
28/12:00pm 16.1 - - - 1015.1 - - - - - - - - -
28/11:30am 16.5 - - - 1015.0 - - - - - - - - -
28/11:00am 20.3 - - - 1014.4 - - - - - - - - -
28/10:30am 19.4 - - - 1014.1 - - - - - - - - -
28/10:00am 20.0 - - - 1013.9 - - - - - - - - -
28/09:30am 19.8 - - - 1013.9 - - - - - - - - -
28/09:00am 19.8 - - - 1013.8 - - - - - - - - -
28/08:30am 19.8 - - - 1013.6 - - - - - - - - -
28/08:00am 19.7 - - - 1013.7 - - - - - - - - -
28/07:30am 19.5 - - - 1013.3 - - - - - - - - -
28/07:00am 19.8 - - - 1012.6 - - - - - - - - -
28/06:30am 19.9 - - - 1012.7 - - - - - - - - -
28/06:00am 19.9 - - - 1012.5 - - - - - - - - -
28/05:30am 20.2 - - - 1012.3 - - - - - - - - -
28/05:00am 20.2 - - - 1012.2 - - - - - - - - -
28/04:30am 20.1 - - - 1012.2 - - - - - - - - -
28/04:00am 19.9 - - - 1012.3 - - - - - - - - -
28/03:30am 19.7 - - - 1012.1 - - - - - - - - -
28/03:00am 19.3 - - - 1012.1 - - - - - - - - -
28/02:30am 19.7 - - - 1012.1 - - - - - - - - -
28/02:00am 19.6 - - - 1012.3 - - - - - - - - -
28/01:30am 19.8 - - - 1012.6 - - - - - - - - -

Other Formats:

Comma delimited format used in spreadsheet applications
http://www.bom.gov.au/fwo/IDT60701/IDT60701.95987.axf

JavaScript Object Notation format (JSON) in row-major order
http://www.bom.gov.au/fwo/IDT60701/IDT60701.95987.json